Weather History for Homer, AK

Change the Weather History Date:

Monday, September 2, 2013

  Actual Average Record
Temperature  
Mean Temperature 58 °F -  
Max Temperature 63 °F 58 °F 68 °F (1996)
Min Temperature 55 °F 41 °F 30 °F (1944)
Degree Days  
Heating Degree Days 6    
Growing Degree Days 8 (Base 50)    
Moisture  
Dew Point 45 °F    
Average Humidity 60    
Maximum Humidity 87    
Minimum Humidity 44    
Precipitation  
Precipitation 0.35 in - - ()
Sea Level Pressure  
Sea Level Pressure 29.62 in    
Wind  
Wind Speed 11 mph (ESE)    
Max Wind Speed 22 mph    
Max Gust Speed 38 mph    
Visibility 10 miles    
Events Rain    
Averages and records for this station are not official NWS values.
T = Trace of Precipitation, MM = Missing Value Source: NWS Daily Summary

Daily Weather History Graph

Daily Weather History Graph

Search for Another Location

Airport:

Trip Planner

Search our weather history database for the weather conditions in past years. The results will help you decide how hot, cold, wet, or windy it might be!

Date:

Astronomy

Sep. 02, 2013 Rise Set
Actual Time 7:05 AM AKDT 9:04 PM AKDT
Civil Twilight 6:21 AM AKDT 9:47 PM AKDT
Nautical Twilight 5:24 AM AKDT 10:44 PM AKDT
Astronomical Twilight 4:12 AM AKDT 11:53 PM AKDT
Moon 4:08 AM AKDT (9/2) 7:38 PM AKDT (9/2)
Length of Visible Light 15h 26m
Length of Day
13h 58m
Waning Crescent, 7% of the Moon is Illuminated
Sep 2
Waning Crescent
Sep 5
New
Sep 12
First Quarter
Sep 19
Full
Sep 26
Last Quarter

Hourly Weather History & Observations

Time (AKDT) Temp. Dew Point Humidity Pressure Visibility Wind Dir Wind Speed Gust Speed Precip Events Conditions
12:53 AM 59.0 °F 51.1 °F 75% 29.71 in 10.0 mi North - - 0.03 in   Overcast
1:53 AM 57.9 °F 52.0 °F 81% 29.71 in 7.0 mi North - - 0.11 in Rain Rain
2:53 AM 57.0 °F 53.1 °F 87% 29.70 in 7.0 mi North - - 0.07 in Rain Rain
3:53 AM 57.0 °F 52.0 °F 83% 29.68 in 10.0 mi ENE 3.5 mph - 0.06 in   Overcast
4:53 AM 61.0 °F 46.0 °F 58% 29.68 in 10.0 mi South 16.1 mph 25.3 mph N/A   Overcast
5:53 AM 61.0 °F 46.0 °F 58% 29.68 in 10.0 mi SE 11.5 mph 19.6 mph N/A   Mostly Cloudy
6:53 AM 61.0 °F 46.0 °F 58% 29.68 in 10.0 mi Variable 6.9 mph 26.5 mph 0.00 in   Mostly Cloudy
7:53 AM 61.0 °F 45.0 °F 56% 29.68 in 10.0 mi ESE 8.1 mph 16.1 mph N/A   Mostly Cloudy
8:53 AM 61.0 °F 44.1 °F 54% 29.67 in 10.0 mi East 8.1 mph - N/A   Mostly Cloudy
9:53 AM 62.1 °F 43.0 °F 50% 29.65 in 10.0 mi Variable 6.9 mph - N/A   Mostly Cloudy
10:53 AM 62.1 °F 42.1 °F 48% 29.63 in 10.0 mi SE 21.9 mph 29.9 mph N/A   Mostly Cloudy
11:53 AM 62.1 °F 39.9 °F 44% 29.63 in 10.0 mi ESE 9.2 mph 19.6 mph N/A   Overcast
12:53 PM 62.1 °F 39.9 °F 44% 29.61 in 10.0 mi ESE 17.3 mph 35.7 mph N/A   Overcast
1:53 PM 62.1 °F 42.1 °F 48% 29.60 in 10.0 mi ESE 15.0 mph 24.2 mph N/A   Overcast
2:53 PM 61.0 °F 42.1 °F 50% 29.60 in 10.0 mi SE 21.9 mph 31.1 mph N/A   Overcast
3:53 PM 59.0 °F 42.1 °F 53% 29.62 in 10.0 mi ESE 21.9 mph 38.0 mph N/A   Overcast
4:53 PM 57.0 °F 42.1 °F 57% 29.62 in 10.0 mi ESE 9.2 mph 19.6 mph 0.00 in Rain Light Rain
5:53 PM 55.9 °F 45.0 °F 67% 29.61 in 6.0 mi ESE 19.6 mph 26.5 mph 0.07 in Rain Light Rain
6:53 PM 55.9 °F 44.1 °F 64% 29.55 in 10.0 mi East 3.5 mph - 0.01 in Rain Light Rain
7:53 PM 57.0 °F 44.1 °F 62% 29.53 in 10.0 mi SSE 18.4 mph 32.2 mph 0.00 in   Mostly Cloudy
8:53 PM 57.9 °F 43.0 °F 58% 29.55 in 10.0 mi ESE 12.7 mph 18.4 mph N/A   Overcast
9:53 PM 57.0 °F 44.1 °F 62% 29.52 in 10.0 mi SE 3.5 mph 20.7 mph N/A   Overcast
10:53 PM 57.9 °F 43.0 °F 58% 29.51 in 10.0 mi SSE 12.7 mph 28.8 mph N/A   Overcast
11:53 PM 57.0 °F 45.0 °F 64% 29.50 in 10.0 mi SE 11.5 mph 20.7 mph N/A   Overcast